• în Republica Moldova
  • Lista ţărilor
  • Pe 7 zile
  • Temperatura apei
  • Hartă satelitară
  • Meteo pe hartă
  • Widget-uri
  • user-avatar
    Intrare

    Meteo pe oră la Benguela

    Astăzi, 29 Mai, Luni

    Timp Temperatura Precipitaţii Vânt Presiune Umiditate
    00:00 +26°C° 0 mm 1 m/s 761 mmHg 89%
    01:00 +26°C° 0 mm 1 m/s 761 mmHg 88%
    02:00 +26°C° 0 mm 1 m/s 760 mmHg 86%
    03:00 +26°C° 0 mm 2 m/s 760 mmHg 85%
    04:00 +26°C° 0 mm 2 m/s 760 mmHg 84%
    05:00 +26°C° 0 mm 2 m/s 760 mmHg 79%
    06:00 +27°C° 0 mm 2 m/s 760 mmHg 75%
    07:00 +29°C° 0 mm 2 m/s 760 mmHg 68%
    08:00 +31°C° 0 mm 2 m/s 760 mmHg 58%
    09:00 +34°C° 0 mm 2 m/s 760 mmHg 49%
    10:00 +36°C° 0 mm 2 m/s 761 mmHg 40%
    11:00 +37°C° 0 mm 2 m/s 760 mmHg 38%
    12:00 +38°C° 0 mm 3 m/s 760 mmHg 36%
    13:00 +40°C° 0 mm 5 m/s 760 mmHg 35%
    14:00 +38°C° 0 mm 4 m/s 759 mmHg 38%
    15:00 +37°C° 0 mm 4 m/s 759 mmHg 41%
    16:00 +36°C° 0 mm 4 m/s 759 mmHg 43%
    17:00 +34°C° 0,1 mm 3 m/s 759 mmHg 53%
    18:00 +30°C° 0,1 mm 2 m/s 760 mmHg 63%
    19:00 +28°C° 0,1 mm 1 m/s 760 mmHg 72%
    20:00 +28°C° 0,1 mm 1 m/s 760 mmHg 74%
    21:00 +27°C° 0,1 mm 1 m/s 761 mmHg 75%
    22:00 +27°C° 0,1 mm 1 m/s 761 mmHg 77%
    23:00 +27°C° 0,1 mm 1 m/s 761 mmHg 77%

    Mâine, 30 Mai, Marţi

    Timp Temperatura Precipitaţii Vânt Presiune Umiditate
    00:00 +27°C° 0,1 mm 1 m/s 761 mmHg 76%
    01:00 +27°C° 0,1 mm 1 m/s 761 mmHg 76%
    02:00 +27°C° 0 mm 1 m/s 761 mmHg 75%
    03:00 +27°C° 0 mm 1 m/s 760 mmHg 74%
    04:00 +26°C° 0 mm 1 m/s 760 mmHg 73%
    05:00 +27°C° 0 mm 1 m/s 760 mmHg 71%
    06:00 +27°C° 0 mm 1 m/s 760 mmHg 69%
    07:00 +28°C° 0 mm 1 m/s 761 mmHg 68%
    08:00 +30°C° 0 mm 1 m/s 761 mmHg 58%
    09:00 +34°C° 0 mm 2 m/s 761 mmHg 49%
    10:00 +36°C° 0 mm 2 m/s 761 mmHg 39%
    11:00 +37°C° 0 mm 2 m/s 760 mmHg 37%
    12:00 +38°C° 0 mm 3 m/s 760 mmHg 34%
    13:00 +40°C° 0 mm 4 m/s 759 mmHg 31%
    14:00 +40°C° 0 mm 4 m/s 759 mmHg 32%
    15:00 +38°C° 0 mm 4 m/s 759 mmHg 33%
    16:00 +39°C° 0 mm 5 m/s 758 mmHg 34%
    17:00 +35°C° 0 mm 4 m/s 759 mmHg 40%
    18:00 +33°C° 0 mm 3 m/s 759 mmHg 46%
    19:00 +30°C° 0 mm 3 m/s 759 mmHg 52%
    20:00 +30°C° 0 mm 3 m/s 760 mmHg 51%
    21:00 +30°C° 0 mm 2 m/s 760 mmHg 50%
    22:00 +30°C° 0 mm 2 m/s 760 mmHg 49%
    23:00 +29°C° 0 mm 2 m/s 760 mmHg 50%

    Poimâine, 31 Mai, Miercuri

    Timp Temperatura Precipitaţii Vânt Presiune Umiditate
    00:00 +29°C° 0 mm 2 m/s 760 mmHg 52%
    01:00 +28°C° 0 mm 2 m/s 760 mmHg 53%
    02:00 +28°C° 0 mm 2 m/s 760 mmHg 52%
    03:00 +29°C° 0 mm 2 m/s 759 mmHg 51%
    04:00 +29°C° 0 mm 2 m/s 759 mmHg 51%
    05:00 +29°C° 0 mm 2 m/s 759 mmHg 50%
    06:00 +29°C° 0 mm 2 m/s 760 mmHg 49%
    07:00 +29°C° 0 mm 2 m/s 760 mmHg 49%
    08:00 +32°C° 0 mm 2 m/s 760 mmHg 42%
    09:00 +36°C° 0 mm 2 m/s 760 mmHg 36%
    10:00 +38°C° 0 mm 2 m/s 761 mmHg 29%
    11:00 +39°C° 0 mm 3 m/s 760 mmHg 28%
    12:00 +39°C° 0 mm 3 m/s 759 mmHg 27%
    13:00 +41°C° 0 mm 4 m/s 758 mmHg 26%
    14:00 +40°C° 0 mm 4 m/s 758 mmHg 28%
    15:00 +40°C° 0 mm 4 m/s 758 mmHg 30%
    16:00 +39°C° 0 mm 5 m/s 757 mmHg 31%
    17:00 +36°C° 0 mm 4 m/s 758 mmHg 38%
    18:00 +33°C° 0 mm 4 m/s 758 mmHg 45%
    19:00 +30°C° 0 mm 3 m/s 759 mmHg 52%
    20:00 +30°C° 0 mm 3 m/s 759 mmHg 52%
    21:00 +29°C° 0 mm 3 m/s 759 mmHg 52%
    22:00 +29°C° 0 mm 2 m/s 760 mmHg 53%
    23:00 +29°C° 0 mm 2 m/s 759 mmHg 52%

    1 Iunie, Joi

    Timp Temperatura Precipitaţii Vânt Presiune Umiditate
    00:00 +29°C° 0 mm 2 m/s 759 mmHg 52%
    01:00 +29°C° 0 mm 2 m/s 759 mmHg 51%
    02:00 +29°C° 0 mm 2 m/s 759 mmHg 51%
    03:00 +29°C° 0 mm 2 m/s 759 mmHg 51%
    04:00 +29°C° 0 mm 2 m/s 758 mmHg 50%
    05:00 +29°C° 0 mm 2 m/s 759 mmHg 49%
    06:00 +29°C° 0 mm 2 m/s 760 mmHg 48%
    07:00 +30°C° 0 mm 2 m/s 760 mmHg 46%
    08:00 +32°C° 0 mm 2 m/s 760 mmHg 41%
    09:00 +35°C° 0 mm 2 m/s 761 mmHg 36%
    10:00 +37°C° 0 mm 3 m/s 761 mmHg 31%
    11:00 +38°C° 0 mm 3 m/s 760 mmHg 30%
    12:00 +38°C° 0 mm 4 m/s 759 mmHg 30%
    13:00 +40°C° 0 mm 5 m/s 759 mmHg 29%
    14:00 +38°C° 0 mm 4 m/s 758 mmHg 32%
    15:00 +37°C° 0 mm 4 m/s 758 mmHg 35%
    16:00 +37°C° 0 mm 4 m/s 758 mmHg 38%
    17:00 +35°C° 0 mm 3 m/s 758 mmHg 46%
    18:00 +31°C° 0 mm 2 m/s 759 mmHg 53%
    19:00 +29°C° 0 mm 2 m/s 760 mmHg 61%
    20:00 +29°C° 0 mm 1 m/s 760 mmHg 63%
    21:00 +28°C° 0 mm 1 m/s 760 mmHg 65%
    22:00 +28°C° 0 mm 1 m/s 761 mmHg 67%
    23:00 +28°C° 0 mm 1 m/s 760 mmHg 65%

    2 Iunie, Vineri

    Timp Temperatura Precipitaţii Vânt Presiune Umiditate
    00:00 +28°C° 0 mm 2 m/s 760 mmHg 63%
    01:00 +28°C° 0 mm 2 m/s 759 mmHg 62%
    02:00 +27°C° 0 mm 2 m/s 759 mmHg 62%
    03:00 +27°C° 0 mm 2 m/s 759 mmHg 63%
    04:00 +27°C° 0 mm 2 m/s 759 mmHg 63%
    05:00 +27°C° 0 mm 2 m/s 759 mmHg 61%
    06:00 +28°C° 0 mm 2 m/s 760 mmHg 59%
    07:00 +28°C° 0 mm 2 m/s 761 mmHg 57%
    08:00 +31°C° 0 mm 2 m/s 761 mmHg 49%
    09:00 +34°C° 0 mm 2 m/s 761 mmHg 41%
    10:00 +37°C° 0 mm 2 m/s 761 mmHg 33%
    11:00 +37°C° 0 mm 3 m/s 760 mmHg 32%
    12:00 +38°C° 0 mm 3 m/s 759 mmHg 32%
    13:00 +38°C° 0 mm 4 m/s 759 mmHg 31%
    14:00 +38°C° 0 mm 4 m/s 758 mmHg 34%
    15:00 +37°C° 0 mm 4 m/s 758 mmHg 36%
    16:00 +36°C° 0 mm 4 m/s 758 mmHg 39%
    17:00 +34°C° 0 mm 4 m/s 758 mmHg 46%
    18:00 +31°C° 0 mm 3 m/s 759 mmHg 53%
    19:00 +29°C° 0 mm 2 m/s 760 mmHg 60%
    20:00 +28°C° 0 mm 2 m/s 760 mmHg 63%
    21:00 +28°C° 0 mm 2 m/s 760 mmHg 66%
    22:00 +27°C° 0 mm 2 m/s 761 mmHg 69%
    23:00 +27°C° 0 mm 2 m/s 760 mmHg 68%

    3 Iunie, Sâmbătă

    Timp Temperatura Precipitaţii Vânt Presiune Umiditate
    00:00 +27°C° 0 mm 2 m/s 760 mmHg 68%
    01:00 +27°C° 0 mm 2 m/s 760 mmHg 67%
    02:00 +26°C° 0 mm 2 m/s 760 mmHg 67%
    03:00 +26°C° 0 mm 2 m/s 760 mmHg 67%
    04:00 +26°C° 0 mm 2 m/s 760 mmHg 66%
    05:00 +26°C° 0 mm 2 m/s 760 mmHg 63%
    06:00 +27°C° 0 mm 2 m/s 760 mmHg 61%
    07:00 +27°C° 0 mm 2 m/s 761 mmHg 58%
    08:00 +30°C° 0 mm 2 m/s 761 mmHg 49%
    09:00 +32°C° 0 mm 2 m/s 761 mmHg 40%
    10:00 +36°C° 0 mm 2 m/s 761 mmHg 31%
    11:00 +37°C° 0 mm 3 m/s 761 mmHg 31%
    12:00 +38°C° 0 mm 3 m/s 760 mmHg 30%
    13:00 +38°C° 0 mm 4 m/s 759 mmHg 29%
    14:00 +39°C° 0 mm 5 m/s 759 mmHg 32%
    15:00 +37°C° 0 mm 5 m/s 758 mmHg 34%
    16:00 +36°C° 0 mm 5 m/s 758 mmHg 37%
    17:00 +34°C° 0 mm 5 m/s 758 mmHg 44%
    18:00 +32°C° 0 mm 4 m/s 759 mmHg 52%
    19:00 +28°C° 0 mm 3 m/s 759 mmHg 59%
    20:00 +28°C° 0 mm 3 m/s 760 mmHg 60%
    21:00 +28°C° 0 mm 3 m/s 760 mmHg 60%
    22:00 +27°C° 0 mm 3 m/s 760 mmHg 61%
    23:00 +27°C° 0 mm 3 m/s 760 mmHg 60%
    Arată mai mult